AAL1813 MBPV-KMIA

Flight info

Callsign AAL1813
Flight time N/A
Altitude 34000
Route MICAS4 MICAS DCT FODED Y308 MADIZ VIICE2
Aircraft B738/M-SDE2E3FGHIRWXY/LB1

Departure

Time 2026-05-01 14:34
Airport Providenciales International Airport (MBPV)

Arrival

Time N/A
Airport Miami International Airport (KMIA)
Time Latitude Longitude Altitude Speed Heading
2026-05-01 14:06 21.77576 -72.27192 44 ft 0 kts 33°
2026-05-01 14:26 21.77559 -72.27203 44 ft 4 kts 32°
2026-05-01 14:26 21.77513 -72.27211 41 ft 4 kts 311°
2026-05-01 14:26 21.77506 -72.27198 41 ft 1 kts 286°
2026-05-01 14:27 21.77506 -72.27196 41 ft 0 kts 286°
2026-05-01 14:30 21.77507 -72.27203 42 ft 4 kts 281°
2026-05-01 14:30 21.77516 -72.27256 44 ft 11 kts 277°
2026-05-01 14:30 21.77522 -72.27351 44 ft 13 kts 273°
2026-05-01 14:31 21.77426 -72.27467 44 ft 12 kts 201°
2026-05-01 14:31 21.77408 -72.27546 44 ft 12 kts 269°
2026-05-01 14:31 21.77412 -72.27643 44 ft 16 kts 272°
2026-05-01 14:31 21.77419 -72.27804 44 ft 26 kts 273°
2026-05-01 14:32 21.77428 -72.28001 43 ft 26 kts 273°
2026-05-01 14:32 21.77464 -72.28147 43 ft 13 kts 300°
2026-05-01 14:32 21.77453 -72.28202 43 ft 6 kts 192°
2026-05-01 14:32 21.77439 -72.28183 43 ft 4 kts 101°
2026-05-01 14:33 21.77438 -72.28173 43 ft 6 kts 96°
2026-05-01 14:33 21.77423 -72.27867 44 ft 78 kts 93°
2026-05-01 14:33 21.77383 -72.27035 44 ft 141 kts 92°
2026-05-01 14:33 21.77308 -72.25873 417 ft 161 kts 91°
2026-05-01 14:34 21.77243 -72.24642 1064 ft 167 kts 92°
2026-05-01 14:34 21.77175 -72.23378 1886 ft 171 kts 92°
2026-05-01 14:34 21.77105 -72.22045 2509 ft 196 kts 93°
2026-05-01 14:34 21.77019 -72.20454 2734 ft 228 kts 94°
2026-05-01 14:35 21.77220 -72.18669 3087 ft 255 kts 66°
2026-05-01 14:35 21.78356 -72.17172 3904 ft 267 kts 36°
2026-05-01 14:35 21.80114 -72.16481 4769 ft 275 kts
2026-05-01 14:35 21.82043 -72.16544 5649 ft 280 kts 354°
2026-05-01 14:36 21.83988 -72.16810 6528 ft 282 kts 352°
2026-05-01 14:36 21.85916 -72.17100 7331 ft 284 kts 352°
2026-05-01 14:36 21.87883 -72.17382 8141 ft 285 kts 352°
2026-05-01 14:36 21.89860 -72.17647 8971 ft 287 kts 353°
2026-05-01 14:37 21.91849 -72.17896 9811 ft 288 kts 353°
2026-05-01 14:37 21.93862 -72.18140 10448 ft 297 kts 353°
2026-05-01 14:37 21.96007 -72.18397 10612 ft 322 kts 353°
2026-05-01 14:37 21.98258 -72.18884 10909 ft 338 kts 338°
2026-05-01 14:38 22.00220 -72.20251 11497 ft 343 kts 315°
2026-05-01 14:38 22.01636 -72.22331 12222 ft 345 kts 301°
2026-05-01 14:38 22.02831 -72.24588 12964 ft 348 kts 299°
2026-05-01 14:38 22.04003 -72.26883 13674 ft 351 kts 298°
2026-05-01 14:39 22.05188 -72.29201 14351 ft 354 kts 299°
2026-05-01 14:39 22.06377 -72.31504 15045 ft 356 kts 299°
2026-05-01 14:39 22.07597 -72.33843 15737 ft 359 kts 299°
2026-05-01 14:39 22.08833 -72.36200 16394 ft 363 kts 300°
2026-05-01 14:40 22.10087 -72.38583 17072 ft 366 kts 300°
2026-05-01 14:40 22.11335 -72.40953 17728 ft 369 kts 300°
2026-05-01 14:40 22.12625 -72.43403 18390 ft 372 kts 300°
2026-05-01 14:40 22.13894 -72.45815 18925 ft 376 kts 300°
2026-05-01 14:41 22.15195 -72.48284 19439 ft 380 kts 300°
2026-05-01 14:41 22.16515 -72.50788 19950 ft 384 kts 300°
2026-05-01 14:41 22.17842 -72.53308 20462 ft 388 kts 300°
2026-05-01 14:41 22.19182 -72.55855 20965 ft 392 kts 300°
2026-05-01 14:42 22.20521 -72.58401 21447 ft 396 kts 299°
2026-05-01 14:42 22.21892 -72.61009 21895 ft 401 kts 299°
2026-05-01 14:42 22.23276 -72.63645 22324 ft 405 kts 299°
2026-05-01 14:42 22.24677 -72.66313 22761 ft 410 kts 299°
2026-05-01 14:43 22.26073 -72.68974 23183 ft 414 kts 299°
2026-05-01 14:43 22.27501 -72.71696 23604 ft 418 kts 299°
2026-05-01 14:43 22.28941 -72.74443 23966 ft 421 kts 299°
2026-05-01 14:43 22.30388 -72.77204 24396 ft 422 kts 299°
2026-05-01 14:44 22.31834 -72.79967 24863 ft 422 kts 299°
2026-05-01 14:44 22.34735 -72.85510 25730 ft 425 kts 300°
2026-05-01 14:44 22.36174 -72.88264 26141 ft 426 kts 300°
2026-05-01 14:45 22.37635 -72.91059 26551 ft 428 kts 300°
2026-05-01 14:45 22.40582 -72.96703 27313 ft 432 kts 300°
2026-05-01 14:45 22.42066 -72.99547 27684 ft 435 kts 300°
2026-05-01 14:46 22.43555 -73.02405 28050 ft 437 kts 300°
2026-05-01 14:46 22.46531 -73.08117 28964 ft 436 kts 300°
2026-05-01 14:46 22.48013 -73.10965 29560 ft 432 kts 300°
2026-05-01 14:47 22.49478 -73.13782 30176 ft 428 kts 300°
2026-05-01 14:47 22.50937 -73.16588 30617 ft 427 kts 300°
2026-05-01 14:47 22.52378 -73.19362 30974 ft 428 kts 300°
2026-05-01 14:48 22.55296 -73.24981 31769 ft 427 kts 300°
2026-05-01 14:48 22.56752 -73.27788 32185 ft 427 kts 300°
2026-05-01 14:48 22.59640 -73.33358 32946 ft 426 kts 300°
2026-05-01 14:49 22.62545 -73.38969 33675 ft 427 kts 300°
2026-05-01 14:49 22.65462 -73.44608 34023 ft 432 kts 299°
2026-05-01 14:50 22.71480 -73.56260 34053 ft 455 kts 299°
2026-05-01 14:51 22.76139 -73.65301 34035 ft 460 kts 299°
2026-05-01 14:52 22.80812 -73.74386 34037 ft 458 kts 299°
2026-05-01 14:53 22.85441 -73.83401 34040 ft 457 kts 299°
2026-05-01 14:53 22.88532 -73.89428 34036 ft 456 kts 299°
2026-05-01 14:54 22.91618 -73.95454 34036 ft 455 kts 298°
2026-05-01 14:54 22.94689 -74.01458 34040 ft 455 kts 298°
2026-05-01 14:55 22.97740 -74.07429 34038 ft 454 kts 298°
2026-05-01 14:55 23.00799 -74.13424 34035 ft 454 kts 298°
2026-05-01 14:56 23.03860 -74.19430 34033 ft 453 kts 298°
2026-05-01 14:56 23.06913 -74.25428 34037 ft 453 kts 298°
2026-05-01 14:57 23.09951 -74.31401 34037 ft 453 kts 298°
2026-05-01 14:57 23.14506 -74.40374 34037 ft 453 kts 298°
2026-05-01 14:58 23.17550 -74.46378 34037 ft 453 kts 298°
2026-05-01 14:58 23.20596 -74.52395 34034 ft 453 kts 298°
2026-05-01 14:59 23.23619 -74.58373 34034 ft 453 kts 298°
2026-05-01 14:59 23.26658 -74.64389 34039 ft 453 kts 298°
2026-05-01 15:00 23.31192 -74.73379 34032 ft 453 kts 298°
2026-05-01 15:01 23.34222 -74.79397 34034 ft 453 kts 298°
2026-05-01 15:01 23.37258 -74.85432 34037 ft 453 kts 297°
2026-05-01 15:02 23.40068 -74.91567 34031 ft 452 kts 289°
2026-05-01 15:02 23.42053 -74.98025 34031 ft 452 kts 287°
2026-05-01 15:03 23.43979 -75.04551 34033 ft 452 kts 287°
2026-05-01 15:03 23.45916 -75.11029 34034 ft 452 kts 287°
2026-05-01 15:04 23.47887 -75.17541 34037 ft 452 kts 287°
2026-05-01 15:04 23.49866 -75.24057 34030 ft 452 kts 287°
2026-05-01 15:05 23.51828 -75.30529 34039 ft 452 kts 287°
2026-05-01 15:05 23.53797 -75.37035 34039 ft 451 kts 287°
2026-05-01 15:06 23.55751 -75.43505 34032 ft 451 kts 287°
2026-05-01 15:06 23.57718 -75.50028 34033 ft 451 kts 287°
2026-05-01 15:07 23.59674 -75.56526 34038 ft 451 kts 287°
2026-05-01 15:07 23.61628 -75.63028 34033 ft 451 kts 287°
2026-05-01 15:08 23.63568 -75.69495 34035 ft 450 kts 287°
2026-05-01 15:08 23.65504 -75.75961 34037 ft 450 kts 287°
2026-05-01 15:09 23.67446 -75.82456 34034 ft 450 kts 287°
2026-05-01 15:09 23.69387 -75.88960 34035 ft 449 kts 286°
2026-05-01 15:10 23.71308 -75.95406 34033 ft 449 kts 286°
2026-05-01 15:10 23.74205 -76.05150 34032 ft 449 kts 286°
2026-05-01 15:11 23.77078 -76.14836 34035 ft 448 kts 286°
2026-05-01 15:12 23.78998 -76.21324 34032 ft 448 kts 286°
2026-05-01 15:12 23.81869 -76.31045 34031 ft 447 kts 286°
2026-05-01 15:14 23.86611 -76.47157 34031 ft 446 kts 286°
2026-05-01 15:14 23.89135 -76.55761 34031 ft 445 kts 286°
2026-05-01 15:15 23.93210 -76.69696 34034 ft 444 kts 286°
2026-05-01 15:16 23.96643 -76.81473 34034 ft 443 kts 286°
2026-05-01 15:18 24.01300 -76.97512 34030 ft 442 kts 286°
2026-05-01 15:19 24.05016 -77.10358 34033 ft 442 kts 286°
2026-05-01 15:19 24.07793 -77.19987 34027 ft 442 kts 286°
2026-05-01 15:20 24.10549 -77.29571 34027 ft 442 kts 286°
2026-05-01 15:21 24.12393 -77.35995 34025 ft 441 kts 286°
2026-05-01 15:21 24.14231 -77.42412 34026 ft 441 kts 286°
2026-05-01 15:22 24.16971 -77.51997 34024 ft 441 kts 286°
2026-05-01 15:22 24.18802 -77.58414 34023 ft 441 kts 286°
2026-05-01 15:23 24.20626 -77.64822 34017 ft 440 kts 286°
2026-05-01 15:23 24.22447 -77.71229 34020 ft 440 kts 286°
2026-05-01 15:24 24.24252 -77.77590 34020 ft 439 kts 286°
2026-05-01 15:24 24.26064 -77.83987 34020 ft 439 kts 286°
2026-05-01 15:25 24.28562 -77.90072 34040 ft 441 kts 302°
2026-05-01 15:25 24.32064 -77.95610 34026 ft 441 kts 302°
2026-05-01 15:26 24.35504 -78.01136 34021 ft 441 kts 302°
2026-05-01 15:26 24.38935 -78.06713 34019 ft 440 kts 302°
2026-05-01 15:27 24.42360 -78.12305 34019 ft 440 kts 302°
2026-05-01 15:28 24.47455 -78.20637 34019 ft 440 kts 302°
2026-05-01 15:28 24.50865 -78.26217 34020 ft 440 kts 302°
2026-05-01 15:29 24.55978 -78.34599 34015 ft 440 kts 302°
2026-05-01 15:29 24.59374 -78.40173 33622 ft 443 kts 302°
2026-05-01 15:30 24.62771 -78.45753 32751 ft 435 kts 302°
2026-05-01 15:31 24.69513 -78.56855 30926 ft 440 kts 301°
2026-05-01 15:31 24.72920 -78.62473 29979 ft 442 kts 301°
2026-05-01 15:32 24.76338 -78.68117 28920 ft 442 kts 301°
2026-05-01 15:32 24.79729 -78.73720 27924 ft 442 kts 301°
2026-05-01 15:33 24.84871 -78.82222 26419 ft 446 kts 301°
2026-05-01 15:34 24.90062 -78.90820 24900 ft 448 kts 302°